TimeMDT,TemperatureF,Dew PointF,Humidity,Sea Level PressureIn,VisibilityMPH,Wind Direction,Wind SpeedMPH,Gust SpeedMPH,PrecipitationIn,Events,Conditions,WindDirDegrees,DateUTC
12:14 AM,54.9,43.5,66,30.17,10.0,Calm,Calm,-,N/A,,Clear,0,2012-09-30 06:14:00
12:34 AM,55.6,43.0,63,30.17,10.0,SSW,4.6,-,N/A,,Clear,200,2012-09-30 06:34:00
12:54 AM,56.1,43.5,63,30.17,10.0,SW,3.5,-,N/A,,Clear,230,2012-09-30 06:54:00
1:14 AM,55.8,44.1,65,30.17,10.0,SSW,3.5,-,N/A,,Clear,210,2012-09-30 07:14:00
1:34 AM,55.8,44.2,65,30.17,10.0,Calm,Calm,-,N/A,,Scattered Clouds,0,2012-09-30 07:34:00
1:54 AM,54.9,44.6,68,30.17,10.0,Calm,Calm,-,N/A,,Scattered Clouds,0,2012-09-30 07:54:00
2:14 AM,52.9,45.7,77,30.17,10.0,Calm,Calm,-,N/A,,Scattered Clouds,0,2012-09-30 08:14:00
2:34 AM,54.0,45.5,73,30.15,10.0,South,3.5,-,N/A,,Clear,180,2012-09-30 08:34:00
2:54 AM,54.5,44.6,69,30.15,10.0,Calm,Calm,-,N/A,,Clear,0,2012-09-30 08:54:00
3:14 AM,52.9,45.5,76,30.15,10.0,Calm,Calm,-,N/A,,Scattered Clouds,0,2012-09-30 09:14:00
3:54 AM,52.5,46.2,79,30.15,10.0,Calm,Calm,-,N/A,,Clear,0,2012-09-30 09:54:00
4:14 AM,52.3,46.4,80,30.14,10.0,Calm,Calm,-,N/A,,Clear,0,2012-09-30 10:14:00
4:34 AM,51.3,46.4,83,30.15,10.0,Calm,Calm,-,N/A,,Clear,0,2012-09-30 10:34:00
4:54 AM,50.9,46.4,85,30.14,10.0,Calm,Calm,-,N/A,,Clear,0,2012-09-30 10:54:00
5:14 AM,50.7,45.1,81,30.14,10.0,Calm,Calm,-,N/A,,Clear,0,2012-09-30 11:14:00
5:34 AM,50.5,44.6,80,30.15,10.0,Calm,Calm,-,N/A,,Clear,0,2012-09-30 11:34:00
5:54 AM,49.1,44.6,84,30.15,10.0,Calm,Calm,-,N/A,,Clear,0,2012-09-30 11:54:00
6:14 AM,50.7,45.0,81,30.15,10.0,WSW,3.5,-,N/A,,Clear,240,2012-09-30 12:14:00
6:34 AM,50.0,45.7,85,30.16,10.0,Calm,Calm,-,N/A,,Scattered Clouds,0,2012-09-30 12:34:00
6:54 AM,50.9,46.0,83,30.17,10.0,Calm,Calm,-,N/A,,Overcast,0,2012-09-30 12:54:00
7:14 AM,51.3,45.7,81,30.17,10.0,Calm,Calm,-,N/A,,Scattered Clouds,0,2012-09-30 13:14:00
7:34 AM,51.4,45.5,80,30.17,10.0,SW,4.6,-,N/A,,Scattered Clouds,220,2012-09-30 13:34:00
7:54 AM,53.2,45.9,76,30.18,10.0,Calm,Calm,-,N/A,,Scattered Clouds,0,2012-09-30 13:54:00
8:14 AM,55.2,46.4,72,30.19,10.0,West,3.5,-,N/A,,Scattered Clouds,260,2012-09-30 14:14:00
8:34 AM,58.3,45.1,62,30.20,10.0,Calm,Calm,-,N/A,,Clear,0,2012-09-30 14:34:00
8:54 AM,60.8,44.6,55,30.21,10.0,Calm,Calm,-,N/A,,Clear,0,2012-09-30 14:54:00
9:14 AM,63.3,39.9,42,30.21,10.0,Calm,Calm,-,N/A,,Clear,0,2012-09-30 15:14:00
9:34 AM,65.3,38.1,37,30.21,10.0,NW,3.5,-,N/A,,Clear,310,2012-09-30 15:34:00
9:54 AM,67.5,39.4,36,30.21,10.0,NNW,8.1,-,N/A,,Clear,340,2012-09-30 15:54:00
10:14 AM,69.8,38.3,32,30.21,10.0,North,11.5,-,N/A,,Clear,360,2012-09-30 16:14:00
10:34 AM,71.6,35.8,27,30.21,10.0,North,11.5,20.7,N/A,,Clear,350,2012-09-30 16:34:00
10:54 AM,72.5,34.2,25,30.21,10.0,North,13.8,20.7,N/A,,Clear,10,2012-09-30 16:54:00
11:14 AM,73.0,34.5,24,30.21,10.0,North,13.8,21.9,N/A,,Clear,360,2012-09-30 17:14:00
11:34 AM,72.9,34.3,24,30.20,10.0,NNE,13.8,19.6,N/A,,Clear,20,2012-09-30 17:34:00
11:54 AM,73.9,34.3,24,30.20,10.0,North,12.7,23.0,N/A,,Clear,10,2012-09-30 17:54:00
12:14 PM,73.8,33.4,23,30.19,10.0,NNE,17.3,23.0,N/A,,Clear,20,2012-09-30 18:14:00
12:34 PM,74.8,32.9,22,30.19,10.0,NNE,18.4,23.0,N/A,,Clear,30,2012-09-30 18:34:00
12:54 PM,75.6,32.2,20,30.18,10.0,NE,13.8,23.0,N/A,,Clear,40,2012-09-30 18:54:00
1:14 PM,75.2,33.1,21,30.17,10.0,NNE,10.4,18.4,N/A,,Clear,20,2012-09-30 19:14:00
1:34 PM,76.3,33.3,21,30.17,10.0,NNE,10.4,23.0,N/A,,Scattered Clouds,20,2012-09-30 19:34:00
2:14 PM,75.4,32.0,20,30.16,10.0,North,4.6,-,N/A,,Mostly Cloudy,360,2012-09-30 20:14:00
2:34 PM,75.7,31.6,20,30.16,10.0,North,5.8,-,N/A,,Mostly Cloudy,360,2012-09-30 20:34:00
2:54 PM,76.5,31.8,20,30.15,10.0,North,5.8,-,N/A,,Mostly Cloudy,350,2012-09-30 20:54:00
3:14 PM,76.8,31.5,19,30.15,10.0,North,5.8,-,N/A,,Mostly Cloudy,360,2012-09-30 21:14:00
3:34 PM,73.2,31.8,22,30.14,10.0,NE,4.6,-,N/A,,Mostly Cloudy,40,2012-09-30 21:34:00
3:54 PM,74.5,32.9,22,30.14,10.0,Calm,Calm,-,N/A,,Overcast,0,2012-09-30 21:54:00
4:14 PM,75.7,33.4,21,30.14,10.0,NNE,4.6,-,N/A,,Overcast,20,2012-09-30 22:14:00
4:34 PM,76.1,32.2,20,30.14,10.0,WNW,3.5,-,N/A,,Mostly Cloudy,300,2012-09-30 22:34:00
4:54 PM,73.8,36.1,25,30.14,10.0,WNW,8.1,-,N/A,,Scattered Clouds,300,2012-09-30 22:54:00
5:14 PM,74.8,33.8,22,30.14,10.0,WSW,3.5,-,N/A,,Clear,250,2012-09-30 23:14:00
5:34 PM,72.9,35.6,26,30.14,10.0,Calm,Calm,-,N/A,,Scattered Clouds,0,2012-09-30 23:34:00
5:54 PM,70.7,37.4,30,30.14,10.0,West,6.9,-,N/A,,Mostly Cloudy,280,2012-09-30 23:54:00
6:14 PM,69.6,36.5,30,30.15,10.0,West,8.1,-,N/A,,Overcast,280,2012-10-01 00:14:00
6:34 PM,68.0,38.1,33,30.17,10.0,North,8.1,-,N/A,Rain,Light Rain,350,2012-10-01 00:34:00
7:14 PM,64.2,39.4,40,30.18,10.0,Calm,Calm,-,N/A,,Scattered Clouds,0,2012-10-01 01:14:00
7:34 PM,62.2,41.2,46,30.18,10.0,Calm,Calm,-,N/A,,Clear,0,2012-10-01 01:34:00
7:54 PM,57.9,45.1,62,30.18,10.0,SW,3.5,-,N/A,,Clear,230,2012-10-01 01:54:00
8:14 PM,56.1,47.5,73,30.19,10.0,SSW,3.5,-,N/A,,Clear,200,2012-10-01 02:14:00
8:34 PM,56.7,47.8,72,30.19,10.0,SSW,3.5,-,N/A,,Scattered Clouds,200,2012-10-01 02:34:00
8:54 PM,57.7,46.8,67,30.20,10.0,Calm,Calm,-,N/A,,Mostly Cloudy,0,2012-10-01 02:54:00
9:14 PM,58.1,45.3,62,30.20,10.0,Calm,Calm,-,N/A,,Scattered Clouds,0,2012-10-01 03:14:00
9:34 PM,58.5,44.6,60,30.20,10.0,South,3.5,-,N/A,,Scattered Clouds,180,2012-10-01 03:34:00
10:14 PM,57.9,45.9,64,30.21,10.0,Calm,Calm,-,N/A,,Mostly Cloudy,0,2012-10-01 04:14:00
10:34 PM,58.3,45.1,62,30.21,10.0,Calm,Calm,-,N/A,,Mostly Cloudy,0,2012-10-01 04:34:00
10:54 PM,57.2,45.9,66,30.21,10.0,Calm,Calm,-,N/A,,Mostly Cloudy,0,2012-10-01 04:54:00
11:14 PM,57.6,45.5,64,30.21,10.0,Calm,Calm,-,N/A,,Mostly Cloudy,0,2012-10-01 05:14:00
11:34 PM,55.6,47.7,75,30.24,10.0,NNE,10.4,-,N/A,,Mostly Cloudy,20,2012-10-01 05:34:00
11:54 PM,60.3,41.5,50,30.23,10.0,NE,12.7,20.7,N/A,Rain,Light Rain,40,2012-10-01 05:54:00